Data supplied by UK-AIR on 27/11/2015
All Data GMT hour ending 
Status: R =Ratified P=Provisional,P*=As supplied
,,Tower Hamlets Roadside,,,,,,,,,,,,,,,,,,,,,,,
Date,time,"Carbon monoxide",status,unit,"Nitric oxide",status,unit,"Nitrogen dioxide",status,unit,"Nitrogen oxides as nitrogen dioxide",status,unit
 
01-01-2012,01:00,0.350000,R,mgm-3,6.00000,R,ugm-3,23.00000,R,ugm-3,33.00000,R,ugm-3
01-01-2012,02:00,0.470000,R,mgm-3,12.00000,R,ugm-3,33.00000,R,ugm-3,52.00000,R,ugm-3
01-01-2012,03:00,0.350000,R,mgm-3,6.00000,R,ugm-3,23.00000,R,ugm-3,33.00000,R,ugm-3
01-01-2012,04:00,0.350000,R,mgm-3,5.00000,R,ugm-3,21.00000,R,ugm-3,29.00000,R,ugm-3
01-01-2012,05:00,0.350000,R,mgm-3,4.00000,R,ugm-3,17.00000,R,ugm-3,23.00000,R,ugm-3
01-01-2012,06:00,0.350000,R,mgm-3,4.00000,R,ugm-3,17.00000,R,ugm-3,23.00000,R,ugm-3
01-01-2012,07:00,0.350000,R,mgm-3,4.00000,R,ugm-3,19.00000,R,ugm-3,25.00000,R,ugm-3
01-01-2012,08:00,0.350000,R,mgm-3,2.00000,R,ugm-3,17.00000,R,ugm-3,21.00000,R,ugm-3
01-01-2012,09:00,0.350000,R,mgm-3,2.00000,R,ugm-3,15.00000,R,ugm-3,19.00000,R,ugm-3
01-01-2012,10:00,0.350000,R,mgm-3,4.00000,R,ugm-3,17.00000,R,ugm-3,23.00000,R,ugm-3
01-01-2012,11:00,0.350000,R,mgm-3,4.00000,R,ugm-3,19.00000,R,ugm-3,25.00000,R,ugm-3
01-01-2012,12:00,0.350000,R,mgm-3,5.00000,R,ugm-3,17.00000,R,ugm-3,25.00000,R,ugm-3
01-01-2012,13:00,0.350000,R,mgm-3,5.00000,R,ugm-3,21.00000,R,ugm-3,29.00000,R,ugm-3
01-01-2012,14:00,0.350000,R,mgm-3,5.00000,R,ugm-3,23.00000,R,ugm-3,31.00000,R,ugm-3
01-01-2012,15:00,0.350000,R,mgm-3,10.00000,R,ugm-3,33.00000,R,ugm-3,48.00000,R,ugm-3
01-01-2012,16:00,0.700000,R,mgm-3,36.00000,R,ugm-3,69.00000,R,ugm-3,124.00000,R,ugm-3
01-01-2012,17:00,0.470000,R,mgm-3,16.00000,R,ugm-3,54.00000,R,ugm-3,78.00000,R,ugm-3
01-01-2012,18:00,0.470000,R,mgm-3,14.00000,R,ugm-3,50.00000,R,ugm-3,71.00000,R,ugm-3
01-01-2012,19:00,0.470000,R,mgm-3,14.00000,R,ugm-3,50.00000,R,ugm-3,71.00000,R,ugm-3
01-01-2012,20:00,0.470000,R,mgm-3,14.00000,R,ugm-3,40.00000,R,ugm-3,61.00000,R,ugm-3
01-01-2012,21:00,0.470000,R,mgm-3,10.00000,R,ugm-3,34.00000,R,ugm-3,50.00000,R,ugm-3
01-01-2012,22:00,0.470000,R,mgm-3,15.00000,R,ugm-3,44.00000,R,ugm-3,67.00000,R,ugm-3
01-01-2012,23:00,0.470000,R,mgm-3,14.00000,R,ugm-3,44.00000,R,ugm-3,65.00000,R,ugm-3
01-01-2012,24:00,0.350000,R,mgm-3,10.00000,R,ugm-3,31.00000,R,ugm-3,46.00000,R,ugm-3
02-01-2012,01:00,0.230000,R,mgm-3,10.00000,R,ugm-3,31.00000,R,ugm-3,46.00000,R,ugm-3
02-01-2012,02:00,0.230000,R,mgm-3,11.00000,R,ugm-3,34.00000,R,ugm-3,52.00000,R,ugm-3
02-01-2012,03:00,0.230000,R,mgm-3,6.00000,R,ugm-3,27.00000,R,ugm-3,36.00000,R,ugm-3
02-01-2012,04:00,0.230000,R,mgm-3,2.00000,R,ugm-3,21.00000,R,ugm-3,25.00000,R,ugm-3
02-01-2012,05:00,0.230000,R,mgm-3,4.00000,R,ugm-3,21.00000,R,ugm-3,27.00000,R,ugm-3
02-01-2012,06:00,0.230000,R,mgm-3,4.00000,R,ugm-3,19.00000,R,ugm-3,25.00000,R,ugm-3
02-01-2012,07:00,0.230000,R,mgm-3,5.00000,R,ugm-3,23.00000,R,ugm-3,31.00000,R,ugm-3
02-01-2012,08:00,0.230000,R,mgm-3,6.00000,R,ugm-3,27.00000,R,ugm-3,36.00000,R,ugm-3
02-01-2012,09:00,0.230000,R,mgm-3,6.00000,R,ugm-3,29.00000,R,ugm-3,38.00000,R,ugm-3
02-01-2012,10:00,0.230000,R,mgm-3,12.00000,R,ugm-3,34.00000,R,ugm-3,54.00000,R,ugm-3
02-01-2012,11:00,0.230000,R,mgm-3,19.00000,R,ugm-3,46.00000,R,ugm-3,75.00000,R,ugm-3
02-01-2012,12:00,0.230000,R,mgm-3,16.00000,R,ugm-3,38.00000,R,ugm-3,63.00000,R,ugm-3
02-01-2012,13:00,0.350000,R,mgm-3,15.00000,R,ugm-3,34.00000,R,ugm-3,57.00000,R,ugm-3
02-01-2012,14:00,0.350000,R,mgm-3,17.00000,R,ugm-3,33.00000,R,ugm-3,59.00000,R,ugm-3
02-01-2012,15:00,0.350000,R,mgm-3,22.00000,R,ugm-3,44.00000,R,ugm-3,78.00000,R,ugm-3
02-01-2012,16:00,0.350000,R,mgm-3,19.00000,R,ugm-3,42.00000,R,ugm-3,71.00000,R,ugm-3
02-01-2012,17:00,0.350000,R,mgm-3,15.00000,R,ugm-3,40.00000,R,ugm-3,63.00000,R,ugm-3
02-01-2012,18:00,0.350000,R,mgm-3,15.00000,R,ugm-3,46.00000,R,ugm-3,69.00000,R,ugm-3
02-01-2012,19:00,0.350000,R,mgm-3,10.00000,R,ugm-3,40.00000,R,ugm-3,55.00000,R,ugm-3
02-01-2012,20:00,0.350000,R,mgm-3,9.00000,R,ugm-3,38.00000,R,ugm-3,52.00000,R,ugm-3
02-01-2012,21:00,0.350000,R,mgm-3,11.00000,R,ugm-3,38.00000,R,ugm-3,55.00000,R,ugm-3
02-01-2012,22:00,0.350000,R,mgm-3,10.00000,R,ugm-3,40.00000,R,ugm-3,55.00000,R,ugm-3
02-01-2012,23:00,0.350000,R,mgm-3,6.00000,R,ugm-3,34.00000,R,ugm-3,44.00000,R,ugm-3
02-01-2012,24:00,0.230000,R,mgm-3,4.00000,R,ugm-3,27.00000,R,ugm-3,33.00000,R,ugm-3
03-01-2012,01:00,0.230000,R,mgm-3,2.00000,R,ugm-3,19.00000,R,ugm-3,23.00000,R,ugm-3
03-01-2012,02:00,0.230000,R,mgm-3,1.00000,R,ugm-3,13.00000,R,ugm-3,15.00000,R,ugm-3
03-01-2012,03:00,0.230000,R,mgm-3,0.00000,R,ugm-3,8.00000,R,ugm-3,8.00000,R,ugm-3
03-01-2012,04:00,0.120000,R,mgm-3,0.00000,R,ugm-3,6.00000,R,ugm-3,6.00000,R,ugm-3
03-01-2012,05:00,0.120000,R,mgm-3,0.00000,R,ugm-3,8.00000,R,ugm-3,8.00000,R,ugm-3
03-01-2012,06:00,0.230000,R,mgm-3,2.00000,R,ugm-3,10.00000,R,ugm-3,13.00000,R,ugm-3
03-01-2012,07:00,0.230000,R,mgm-3,6.00000,R,ugm-3,13.00000,R,ugm-3,23.00000,R,ugm-3
03-01-2012,08:00,0.230000,R,mgm-3,7.00000,R,ugm-3,19.00000,R,ugm-3,31.00000,R,ugm-3
03-01-2012,09:00,0.230000,R,mgm-3,6.00000,R,ugm-3,19.00000,R,ugm-3,29.00000,R,ugm-3
03-01-2012,10:00,0.230000,R,mgm-3,6.00000,R,ugm-3,19.00000,R,ugm-3,29.00000,R,ugm-3
03-01-2012,11:00,0.230000,R,mgm-3,7.00000,R,ugm-3,19.00000,R,ugm-3,31.00000,R,ugm-3
03-01-2012,12:00,0.230000,R,mgm-3,11.00000,R,ugm-3,23.00000,R,ugm-3,40.00000,R,ugm-3
03-01-2012,13:00,0.350000,R,mgm-3,31.00000,R,ugm-3,52.00000,R,ugm-3,99.00000,R,ugm-3
03-01-2012,14:00,0.350000,R,mgm-3,39.00000,R,ugm-3,65.00000,R,ugm-3,124.00000,R,ugm-3
03-01-2012,15:00,0.350000,R,mgm-3,27.00000,R,ugm-3,54.00000,R,ugm-3,96.00000,R,ugm-3
03-01-2012,16:00,0.350000,R,mgm-3,29.00000,R,ugm-3,57.00000,R,ugm-3,101.00000,R,ugm-3
03-01-2012,17:00,0.350000,R,mgm-3,35.00000,R,ugm-3,63.00000,R,ugm-3,117.00000,R,ugm-3
03-01-2012,18:00,0.350000,R,mgm-3,27.00000,R,ugm-3,57.00000,R,ugm-3,99.00000,R,ugm-3
03-01-2012,19:00,0.350000,R,mgm-3,30.00000,R,ugm-3,67.00000,R,ugm-3,113.00000,R,ugm-3
03-01-2012,20:00,0.470000,R,mgm-3,32.00000,R,ugm-3,69.00000,R,ugm-3,119.00000,R,ugm-3
03-01-2012,21:00,0.350000,R,mgm-3,21.00000,R,ugm-3,59.00000,R,ugm-3,92.00000,R,ugm-3
03-01-2012,22:00,0.350000,R,mgm-3,11.00000,R,ugm-3,42.00000,R,ugm-3,59.00000,R,ugm-3
03-01-2012,23:00,0.230000,R,mgm-3,9.00000,R,ugm-3,34.00000,R,ugm-3,48.00000,R,ugm-3
03-01-2012,24:00,0.230000,R,mgm-3,10.00000,R,ugm-3,31.00000,R,ugm-3,46.00000,R,ugm-3
04-01-2012,01:00,0.230000,R,mgm-3,11.00000,R,ugm-3,36.00000,R,ugm-3,54.00000,R,ugm-3
04-01-2012,02:00,0.230000,R,mgm-3,7.00000,R,ugm-3,21.00000,R,ugm-3,33.00000,R,ugm-3
04-01-2012,03:00,0.230000,R,mgm-3,5.00000,R,ugm-3,21.00000,R,ugm-3,29.00000,R,ugm-3
04-01-2012,04:00,0.230000,R,mgm-3,6.00000,R,ugm-3,23.00000,R,ugm-3,33.00000,R,ugm-3
04-01-2012,05:00,0.230000,R,mgm-3,7.00000,R,ugm-3,33.00000,R,ugm-3,44.00000,R,ugm-3
04-01-2012,06:00,0.230000,R,mgm-3,12.00000,R,ugm-3,42.00000,R,ugm-3,61.00000,R,ugm-3
04-01-2012,07:00,0.230000,R,mgm-3,21.00000,R,ugm-3,55.00000,R,ugm-3,88.00000,R,ugm-3
04-01-2012,08:00,0.350000,R,mgm-3,37.00000,R,ugm-3,80.00000,R,ugm-3,138.00000,R,ugm-3
04-01-2012,09:00,0.470000,R,mgm-3,52.00000,R,ugm-3,84.00000,R,ugm-3,164.00000,R,ugm-3
04-01-2012,10:00,0.470000,R,mgm-3,62.00000,R,ugm-3,80.00000,R,ugm-3,176.00000,R,ugm-3
04-01-2012,11:00,0.350000,R,mgm-3,59.00000,R,ugm-3,73.00000,R,ugm-3,163.00000,R,ugm-3
04-01-2012,12:00,0.350000,R,mgm-3,51.00000,R,ugm-3,69.00000,R,ugm-3,147.00000,R,ugm-3
04-01-2012,13:00,0.350000,R,mgm-3,31.00000,R,ugm-3,55.00000,R,ugm-3,103.00000,R,ugm-3
04-01-2012,14:00,0.350000,R,mgm-3,25.00000,R,ugm-3,48.00000,R,ugm-3,86.00000,R,ugm-3
04-01-2012,15:00,0.230000,R,mgm-3,24.00000,R,ugm-3,48.00000,R,ugm-3,84.00000,R,ugm-3
04-01-2012,16:00,0.350000,R,mgm-3,15.00000,R,ugm-3,36.00000,R,ugm-3,59.00000,R,ugm-3
04-01-2012,17:00,0.350000,R,mgm-3,16.00000,R,ugm-3,40.00000,R,ugm-3,65.00000,R,ugm-3
04-01-2012,18:00,0.350000,R,mgm-3,14.00000,R,ugm-3,38.00000,R,ugm-3,59.00000,R,ugm-3
04-01-2012,19:00,0.350000,R,mgm-3,17.00000,R,ugm-3,38.00000,R,ugm-3,65.00000,R,ugm-3
04-01-2012,20:00,0.350000,R,mgm-3,16.00000,R,ugm-3,42.00000,R,ugm-3,67.00000,R,ugm-3
04-01-2012,21:00,0.350000,R,mgm-3,14.00000,R,ugm-3,42.00000,R,ugm-3,63.00000,R,ugm-3
04-01-2012,22:00,0.350000,R,mgm-3,11.00000,R,ugm-3,34.00000,R,ugm-3,52.00000,R,ugm-3
04-01-2012,23:00,0.230000,R,mgm-3,10.00000,R,ugm-3,33.00000,R,ugm-3,48.00000,R,ugm-3
04-01-2012,24:00,0.230000,R,mgm-3,10.00000,R,ugm-3,27.00000,R,ugm-3,42.00000,R,ugm-3
05-01-2012,01:00,0.350000,R,mgm-3,7.00000,R,ugm-3,23.00000,R,ugm-3,34.00000,R,ugm-3
05-01-2012,02:00,0.350000,R,mgm-3,5.00000,R,ugm-3,19.00000,R,ugm-3,27.00000,R,ugm-3
05-01-2012,03:00,0.350000,R,mgm-3,5.00000,R,ugm-3,17.00000,R,ugm-3,25.00000,R,ugm-3
05-01-2012,04:00,0.350000,R,mgm-3,4.00000,R,ugm-3,17.00000,R,ugm-3,23.00000,R,ugm-3
05-01-2012,05:00,0.350000,R,mgm-3,4.00000,R,ugm-3,23.00000,R,ugm-3,29.00000,R,ugm-3
05-01-2012,06:00,0.350000,R,mgm-3,10.00000,R,ugm-3,27.00000,R,ugm-3,42.00000,R,ugm-3
05-01-2012,07:00,0.350000,R,mgm-3,16.00000,R,ugm-3,40.00000,R,ugm-3,65.00000,R,ugm-3
05-01-2012,08:00,0.350000,R,mgm-3,22.00000,R,ugm-3,48.00000,R,ugm-3,82.00000,R,ugm-3
05-01-2012,09:00,0.470000,R,mgm-3,27.00000,R,ugm-3,42.00000,R,ugm-3,84.00000,R,ugm-3
05-01-2012,10:00,0.470000,R,mgm-3,36.00000,R,ugm-3,48.00000,R,ugm-3,103.00000,R,ugm-3
05-01-2012,11:00,0.470000,R,mgm-3,40.00000,R,ugm-3,52.00000,R,ugm-3,113.00000,R,ugm-3
05-01-2012,12:00,0.350000,R,mgm-3,34.00000,R,ugm-3,44.00000,R,ugm-3,96.00000,R,ugm-3
05-01-2012,13:00,0.350000,R,mgm-3,32.00000,R,ugm-3,38.00000,R,ugm-3,88.00000,R,ugm-3
05-01-2012,14:00,0.470000,R,mgm-3,32.00000,R,ugm-3,38.00000,R,ugm-3,88.00000,R,ugm-3
05-01-2012,15:00,0.470000,R,mgm-3,34.00000,R,ugm-3,38.00000,R,ugm-3,90.00000,R,ugm-3
05-01-2012,16:00,0.470000,R,mgm-3,42.00000,R,ugm-3,46.00000,R,ugm-3,111.00000,R,ugm-3
05-01-2012,17:00,0.580000,R,mgm-3,46.00000,R,ugm-3,57.00000,R,ugm-3,128.00000,R,ugm-3
05-01-2012,18:00,0.580000,R,mgm-3,37.00000,R,ugm-3,54.00000,R,ugm-3,111.00000,R,ugm-3
05-01-2012,19:00,0.580000,R,mgm-3,31.00000,R,ugm-3,50.00000,R,ugm-3,98.00000,R,ugm-3
05-01-2012,20:00,0.470000,R,mgm-3,27.00000,R,ugm-3,48.00000,R,ugm-3,90.00000,R,ugm-3
05-01-2012,21:00,0.470000,R,mgm-3,20.00000,R,ugm-3,38.00000,R,ugm-3,69.00000,R,ugm-3
05-01-2012,22:00,0.470000,R,mgm-3,15.00000,R,ugm-3,33.00000,R,ugm-3,55.00000,R,ugm-3
05-01-2012,23:00,0.470000,R,mgm-3,24.00000,R,ugm-3,38.00000,R,ugm-3,75.00000,R,ugm-3
05-01-2012,24:00,0.470000,R,mgm-3,16.00000,R,ugm-3,31.00000,R,ugm-3,55.00000,R,ugm-3
06-01-2012,01:00,0.230000,R,mgm-3,15.00000,R,ugm-3,29.00000,R,ugm-3,52.00000,R,ugm-3
06-01-2012,02:00,0.230000,R,mgm-3,12.00000,R,ugm-3,25.00000,R,ugm-3,44.00000,R,ugm-3
06-01-2012,03:00,0.230000,R,mgm-3,9.00000,R,ugm-3,21.00000,R,ugm-3,34.00000,R,ugm-3
06-01-2012,04:00,0.230000,R,mgm-3,9.00000,R,ugm-3,23.00000,R,ugm-3,36.00000,R,ugm-3
06-01-2012,05:00,0.230000,R,mgm-3,11.00000,R,ugm-3,29.00000,R,ugm-3,46.00000,R,ugm-3
06-01-2012,06:00,0.230000,R,mgm-3,22.00000,R,ugm-3,44.00000,R,ugm-3,78.00000,R,ugm-3
06-01-2012,07:00,0.350000,R,mgm-3,44.00000,R,ugm-3,67.00000,R,ugm-3,134.00000,R,ugm-3
06-01-2012,08:00,0.470000,R,mgm-3,85.00000,R,ugm-3,90.00000,R,ugm-3,220.00000,R,ugm-3
06-01-2012,09:00,0.700000,R,mgm-3,111.00000,R,ugm-3,94.00000,R,ugm-3,264.00000,R,ugm-3
06-01-2012,10:00,0.580000,R,mgm-3,92.00000,R,ugm-3,92.00000,R,ugm-3,233.00000,R,ugm-3
06-01-2012,11:00,0.580000,R,mgm-3,101.00000,R,ugm-3,90.00000,R,ugm-3,245.00000,R,ugm-3
06-01-2012,12:00,0.470000,R,mgm-3,97.00000,R,ugm-3,88.00000,R,ugm-3,237.00000,R,ugm-3
06-01-2012,13:00,0.470000,R,mgm-3,81.00000,R,ugm-3,82.00000,R,ugm-3,207.00000,R,ugm-3
06-01-2012,14:00,0.580000,R,mgm-3,,,,,,,,,
06-01-2012,15:00,0.580000,R,mgm-3,99.00000,R,ugm-3,92.00000,R,ugm-3,243.00000,R,ugm-3
06-01-2012,16:00,0.470000,R,mgm-3,55.00000,R,ugm-3,78.00000,R,ugm-3,163.00000,R,ugm-3
06-01-2012,17:00,0.470000,R,mgm-3,42.00000,R,ugm-3,75.00000,R,ugm-3,140.00000,R,ugm-3
06-01-2012,18:00,0.470000,R,mgm-3,32.00000,R,ugm-3,67.00000,R,ugm-3,117.00000,R,ugm-3
06-01-2012,19:00,0.470000,R,mgm-3,29.00000,R,ugm-3,63.00000,R,ugm-3,107.00000,R,ugm-3
06-01-2012,20:00,0.470000,R,mgm-3,21.00000,R,ugm-3,54.00000,R,ugm-3,86.00000,R,ugm-3
06-01-2012,21:00,0.350000,R,mgm-3,19.00000,R,ugm-3,50.00000,R,ugm-3,78.00000,R,ugm-3
06-01-2012,22:00,0.350000,R,mgm-3,24.00000,R,ugm-3,54.00000,R,ugm-3,90.00000,R,ugm-3
06-01-2012,23:00,0.350000,R,mgm-3,19.00000,R,ugm-3,50.00000,R,ugm-3,78.00000,R,ugm-3
06-01-2012,24:00,0.230000,R,mgm-3,11.00000,R,ugm-3,36.00000,R,ugm-3,54.00000,R,ugm-3
07-01-2012,01:00,0.230000,R,mgm-3,14.00000,R,ugm-3,36.00000,R,ugm-3,57.00000,R,ugm-3
07-01-2012,02:00,0.230000,R,mgm-3,17.00000,R,ugm-3,36.00000,R,ugm-3,63.00000,R,ugm-3
07-01-2012,03:00,0.230000,R,mgm-3,9.00000,R,ugm-3,36.00000,R,ugm-3,50.00000,R,ugm-3
07-01-2012,04:00,0.230000,R,mgm-3,10.00000,R,ugm-3,34.00000,R,ugm-3,50.00000,R,ugm-3
07-01-2012,05:00,0.230000,R,mgm-3,9.00000,R,ugm-3,36.00000,R,ugm-3,50.00000,R,ugm-3
07-01-2012,06:00,0.230000,R,mgm-3,14.00000,R,ugm-3,42.00000,R,ugm-3,63.00000,R,ugm-3
07-01-2012,07:00,0.230000,R,mgm-3,20.00000,R,ugm-3,46.00000,R,ugm-3,77.00000,R,ugm-3
07-01-2012,08:00,0.230000,R,mgm-3,22.00000,R,ugm-3,52.00000,R,ugm-3,86.00000,R,ugm-3
07-01-2012,09:00,0.230000,R,mgm-3,22.00000,R,ugm-3,50.00000,R,ugm-3,84.00000,R,ugm-3
07-01-2012,10:00,0.350000,R,mgm-3,24.00000,R,ugm-3,52.00000,R,ugm-3,88.00000,R,ugm-3
07-01-2012,11:00,0.350000,R,mgm-3,39.00000,R,ugm-3,55.00000,R,ugm-3,115.00000,R,ugm-3
07-01-2012,12:00,0.350000,R,mgm-3,32.00000,R,ugm-3,52.00000,R,ugm-3,101.00000,R,ugm-3
07-01-2012,13:00,0.350000,R,mgm-3,26.00000,R,ugm-3,42.00000,R,ugm-3,82.00000,R,ugm-3
07-01-2012,14:00,0.350000,R,mgm-3,31.00000,R,ugm-3,42.00000,R,ugm-3,90.00000,R,ugm-3
07-01-2012,15:00,0.350000,R,mgm-3,29.00000,R,ugm-3,42.00000,R,ugm-3,86.00000,R,ugm-3
07-01-2012,16:00,0.350000,R,mgm-3,30.00000,R,ugm-3,48.00000,R,ugm-3,94.00000,R,ugm-3
07-01-2012,17:00,0.470000,R,mgm-3,50.00000,R,ugm-3,71.00000,R,ugm-3,147.00000,R,ugm-3
07-01-2012,18:00,0.470000,R,mgm-3,40.00000,R,ugm-3,75.00000,R,ugm-3,136.00000,R,ugm-3
07-01-2012,19:00,0.470000,R,mgm-3,49.00000,R,ugm-3,77.00000,R,ugm-3,151.00000,R,ugm-3
07-01-2012,20:00,0.580000,R,mgm-3,54.00000,R,ugm-3,82.00000,R,ugm-3,164.00000,R,ugm-3
07-01-2012,21:00,0.470000,R,mgm-3,40.00000,R,ugm-3,73.00000,R,ugm-3,134.00000,R,ugm-3
07-01-2012,22:00,0.470000,R,mgm-3,31.00000,R,ugm-3,61.00000,R,ugm-3,109.00000,R,ugm-3
07-01-2012,23:00,0.470000,R,mgm-3,29.00000,R,ugm-3,63.00000,R,ugm-3,107.00000,R,ugm-3
07-01-2012,24:00,0.470000,R,mgm-3,37.00000,R,ugm-3,65.00000,R,ugm-3,122.00000,R,ugm-3
08-01-2012,01:00,0.350000,R,mgm-3,24.00000,R,ugm-3,55.00000,R,ugm-3,92.00000,R,ugm-3
08-01-2012,02:00,0.350000,R,mgm-3,21.00000,R,ugm-3,52.00000,R,ugm-3,84.00000,R,ugm-3
08-01-2012,03:00,0.350000,R,mgm-3,25.00000,R,ugm-3,48.00000,R,ugm-3,86.00000,R,ugm-3
08-01-2012,04:00,0.230000,R,mgm-3,16.00000,R,ugm-3,40.00000,R,ugm-3,65.00000,R,ugm-3
08-01-2012,05:00,0.230000,R,mgm-3,14.00000,R,ugm-3,36.00000,R,ugm-3,57.00000,R,ugm-3
08-01-2012,06:00,0.230000,R,mgm-3,12.00000,R,ugm-3,31.00000,R,ugm-3,50.00000,R,ugm-3
08-01-2012,07:00,0.230000,R,mgm-3,20.00000,R,ugm-3,34.00000,R,ugm-3,65.00000,R,ugm-3
08-01-2012,08:00,0.350000,R,mgm-3,22.00000,R,ugm-3,42.00000,R,ugm-3,77.00000,R,ugm-3
08-01-2012,09:00,0.350000,R,mgm-3,22.00000,R,ugm-3,50.00000,R,ugm-3,84.00000,R,ugm-3
08-01-2012,10:00,0.350000,R,mgm-3,30.00000,R,ugm-3,57.00000,R,ugm-3,103.00000,R,ugm-3
08-01-2012,11:00,0.350000,R,mgm-3,30.00000,R,ugm-3,55.00000,R,ugm-3,101.00000,R,ugm-3
08-01-2012,12:00,0.470000,R,mgm-3,36.00000,R,ugm-3,57.00000,R,ugm-3,113.00000,R,ugm-3
08-01-2012,13:00,0.470000,R,mgm-3,47.00000,R,ugm-3,65.00000,R,ugm-3,138.00000,R,ugm-3
08-01-2012,14:00,0.580000,R,mgm-3,59.00000,R,ugm-3,69.00000,R,ugm-3,159.00000,R,ugm-3
08-01-2012,15:00,0.580000,R,mgm-3,57.00000,R,ugm-3,71.00000,R,ugm-3,159.00000,R,ugm-3
08-01-2012,16:00,0.580000,R,mgm-3,66.00000,R,ugm-3,75.00000,R,ugm-3,176.00000,R,ugm-3
08-01-2012,17:00,0.580000,R,mgm-3,64.00000,R,ugm-3,82.00000,R,ugm-3,180.00000,R,ugm-3
08-01-2012,18:00,0.580000,R,mgm-3,62.00000,R,ugm-3,84.00000,R,ugm-3,180.00000,R,ugm-3
08-01-2012,19:00,0.580000,R,mgm-3,34.00000,R,ugm-3,69.00000,R,ugm-3,120.00000,R,ugm-3
08-01-2012,20:00,0.580000,R,mgm-3,34.00000,R,ugm-3,69.00000,R,ugm-3,120.00000,R,ugm-3
08-01-2012,21:00,0.580000,R,mgm-3,45.00000,R,ugm-3,69.00000,R,ugm-3,138.00000,R,ugm-3
08-01-2012,22:00,0.700000,R,mgm-3,65.00000,R,ugm-3,75.00000,R,ugm-3,174.00000,R,ugm-3
08-01-2012,23:00,0.580000,R,mgm-3,45.00000,R,ugm-3,67.00000,R,ugm-3,136.00000,R,ugm-3
08-01-2012,24:00,0.470000,R,mgm-3,34.00000,R,ugm-3,61.00000,R,ugm-3,113.00000,R,ugm-3
09-01-2012,01:00,0.350000,R,mgm-3,19.00000,R,ugm-3,46.00000,R,ugm-3,75.00000,R,ugm-3
09-01-2012,02:00,0.350000,R,mgm-3,17.00000,R,ugm-3,44.00000,R,ugm-3,71.00000,R,ugm-3
09-01-2012,03:00,0.230000,R,mgm-3,17.00000,R,ugm-3,46.00000,R,ugm-3,73.00000,R,ugm-3
09-01-2012,04:00,0.230000,R,mgm-3,19.00000,R,ugm-3,50.00000,R,ugm-3,78.00000,R,ugm-3
09-01-2012,05:00,0.230000,R,mgm-3,7.00000,R,ugm-3,38.00000,R,ugm-3,50.00000,R,ugm-3
09-01-2012,06:00,0.230000,R,mgm-3,15.00000,R,ugm-3,38.00000,R,ugm-3,61.00000,R,ugm-3
09-01-2012,07:00,0.230000,R,mgm-3,24.00000,R,ugm-3,54.00000,R,ugm-3,90.00000,R,ugm-3
09-01-2012,08:00,0.350000,R,mgm-3,45.00000,R,ugm-3,69.00000,R,ugm-3,138.00000,R,ugm-3
09-01-2012,09:00,0.470000,R,mgm-3,77.00000,R,ugm-3,82.00000,R,ugm-3,201.00000,R,ugm-3
09-01-2012,10:00,0.470000,R,mgm-3,70.00000,R,ugm-3,80.00000,R,ugm-3,187.00000,R,ugm-3
09-01-2012,11:00,0.350000,R,mgm-3,70.00000,R,ugm-3,82.00000,R,ugm-3,189.00000,R,ugm-3
09-01-2012,12:00,0.350000,R,mgm-3,62.00000,R,ugm-3,80.00000,R,ugm-3,176.00000,R,ugm-3
09-01-2012,13:00,0.350000,R,mgm-3,64.00000,R,ugm-3,77.00000,R,ugm-3,174.00000,R,ugm-3
09-01-2012,14:00,0.470000,R,mgm-3,69.00000,R,ugm-3,77.00000,R,ugm-3,182.00000,R,ugm-3
09-01-2012,15:00,0.470000,R,mgm-3,81.00000,R,ugm-3,88.00000,R,ugm-3,212.00000,R,ugm-3
09-01-2012,16:00,0.580000,R,mgm-3,89.00000,R,ugm-3,88.00000,R,ugm-3,224.00000,R,ugm-3
09-01-2012,17:00,0.700000,R,mgm-3,112.00000,R,ugm-3,101.00000,R,ugm-3,273.00000,R,ugm-3
09-01-2012,18:00,0.700000,R,mgm-3,82.00000,R,ugm-3,96.00000,R,ugm-3,222.00000,R,ugm-3
09-01-2012,19:00,0.580000,R,mgm-3,62.00000,R,ugm-3,86.00000,R,ugm-3,182.00000,R,ugm-3
09-01-2012,20:00,0.580000,R,mgm-3,67.00000,R,ugm-3,90.00000,R,ugm-3,193.00000,R,ugm-3
09-01-2012,21:00,0.470000,R,mgm-3,50.00000,R,ugm-3,78.00000,R,ugm-3,155.00000,R,ugm-3
09-01-2012,22:00,0.350000,R,mgm-3,36.00000,R,ugm-3,69.00000,R,ugm-3,124.00000,R,ugm-3
09-01-2012,23:00,0.470000,R,mgm-3,46.00000,R,ugm-3,73.00000,R,ugm-3,143.00000,R,ugm-3
09-01-2012,24:00,0.470000,R,mgm-3,46.00000,R,ugm-3,78.00000,R,ugm-3,149.00000,R,ugm-3
10-01-2012,01:00,0.350000,R,mgm-3,37.00000,R,ugm-3,61.00000,R,ugm-3,119.00000,R,ugm-3
10-01-2012,02:00,0.350000,R,mgm-3,34.00000,R,ugm-3,65.00000,R,ugm-3,117.00000,R,ugm-3
10-01-2012,03:00,0.230000,R,mgm-3,6.00000,R,ugm-3,38.00000,R,ugm-3,48.00000,R,ugm-3
10-01-2012,04:00,0.230000,R,mgm-3,7.00000,R,ugm-3,29.00000,R,ugm-3,40.00000,R,ugm-3
10-01-2012,05:00,0.230000,R,mgm-3,10.00000,R,ugm-3,34.00000,R,ugm-3,50.00000,R,ugm-3
10-01-2012,06:00,0.120000,R,mgm-3,10.00000,R,ugm-3,31.00000,R,ugm-3,46.00000,R,ugm-3
10-01-2012,07:00,0.230000,R,mgm-3,25.00000,R,ugm-3,50.00000,R,ugm-3,88.00000,R,ugm-3
10-01-2012,08:00,0.350000,R,mgm-3,37.00000,R,ugm-3,63.00000,R,ugm-3,120.00000,R,ugm-3
10-01-2012,09:00,0.470000,R,mgm-3,61.00000,R,ugm-3,77.00000,R,ugm-3,170.00000,R,ugm-3
10-01-2012,10:00,0.350000,R,mgm-3,51.00000,R,ugm-3,69.00000,R,ugm-3,147.00000,R,ugm-3
10-01-2012,11:00,0.350000,R,mgm-3,64.00000,R,ugm-3,73.00000,R,ugm-3,170.00000,R,ugm-3
10-01-2012,12:00,0.350000,R,mgm-3,69.00000,R,ugm-3,82.00000,R,ugm-3,187.00000,R,ugm-3
10-01-2012,13:00,0.470000,R,mgm-3,72.00000,R,ugm-3,88.00000,R,ugm-3,199.00000,R,ugm-3
10-01-2012,14:00,0.350000,R,mgm-3,62.00000,R,ugm-3,80.00000,R,ugm-3,176.00000,R,ugm-3
10-01-2012,15:00,0.470000,R,mgm-3,81.00000,R,ugm-3,86.00000,R,ugm-3,210.00000,R,ugm-3
10-01-2012,16:00,0.470000,R,mgm-3,85.00000,R,ugm-3,92.00000,R,ugm-3,222.00000,R,ugm-3
10-01-2012,17:00,0.470000,R,mgm-3,60.00000,R,ugm-3,80.00000,R,ugm-3,172.00000,R,ugm-3
10-01-2012,18:00,0.470000,R,mgm-3,54.00000,R,ugm-3,80.00000,R,ugm-3,163.00000,R,ugm-3
10-01-2012,19:00,0.470000,R,mgm-3,54.00000,R,ugm-3,84.00000,R,ugm-3,166.00000,R,ugm-3
10-01-2012,20:00,0.470000,R,mgm-3,46.00000,R,ugm-3,78.00000,R,ugm-3,149.00000,R,ugm-3
10-01-2012,21:00,0.470000,R,mgm-3,37.00000,R,ugm-3,75.00000,R,ugm-3,132.00000,R,ugm-3
10-01-2012,22:00,0.350000,R,mgm-3,29.00000,R,ugm-3,65.00000,R,ugm-3,109.00000,R,ugm-3
10-01-2012,23:00,0.230000,R,mgm-3,14.00000,R,ugm-3,50.00000,R,ugm-3,71.00000,R,ugm-3
10-01-2012,24:00,0.230000,R,mgm-3,17.00000,R,ugm-3,52.00000,R,ugm-3,78.00000,R,ugm-3
11-01-2012,01:00,0.350000,R,mgm-3,16.00000,R,ugm-3,42.00000,R,ugm-3,67.00000,R,ugm-3
11-01-2012,02:00,0.350000,R,mgm-3,14.00000,R,ugm-3,38.00000,R,ugm-3,59.00000,R,ugm-3
11-01-2012,03:00,0.230000,R,mgm-3,6.00000,R,ugm-3,23.00000,R,ugm-3,33.00000,R,ugm-3
11-01-2012,04:00,0.230000,R,mgm-3,4.00000,R,ugm-3,21.00000,R,ugm-3,27.00000,R,ugm-3
11-01-2012,05:00,0.230000,R,mgm-3,7.00000,R,ugm-3,25.00000,R,ugm-3,36.00000,R,ugm-3
11-01-2012,06:00,0.230000,R,mgm-3,16.00000,R,ugm-3,38.00000,R,ugm-3,63.00000,R,ugm-3
11-01-2012,07:00,0.350000,R,mgm-3,35.00000,R,ugm-3,59.00000,R,ugm-3,113.00000,R,ugm-3
11-01-2012,08:00,0.470000,R,mgm-3,56.00000,R,ugm-3,80.00000,R,ugm-3,166.00000,R,ugm-3
11-01-2012,09:00,0.580000,R,mgm-3,81.00000,R,ugm-3,78.00000,R,ugm-3,203.00000,R,ugm-3
11-01-2012,10:00,0.580000,R,mgm-3,67.00000,R,ugm-3,77.00000,R,ugm-3,180.00000,R,ugm-3
11-01-2012,11:00,0.470000,R,mgm-3,59.00000,R,ugm-3,71.00000,R,ugm-3,161.00000,R,ugm-3
11-01-2012,12:00,0.470000,R,mgm-3,87.00000,R,ugm-3,78.00000,R,ugm-3,212.00000,R,ugm-3
11-01-2012,13:00,0.470000,R,mgm-3,71.00000,R,ugm-3,75.00000,R,ugm-3,184.00000,R,ugm-3
11-01-2012,14:00,0.470000,R,mgm-3,77.00000,R,ugm-3,75.00000,R,ugm-3,193.00000,R,ugm-3
11-01-2012,15:00,0.470000,R,mgm-3,64.00000,R,ugm-3,75.00000,R,ugm-3,172.00000,R,ugm-3
11-01-2012,16:00,0.580000,R,mgm-3,79.00000,R,ugm-3,78.00000,R,ugm-3,199.00000,R,ugm-3
11-01-2012,17:00,0.700000,R,mgm-3,120.00000,R,ugm-3,101.00000,R,ugm-3,285.00000,R,ugm-3
11-01-2012,18:00,0.810000,R,mgm-3,96.00000,R,ugm-3,98.00000,R,ugm-3,245.00000,R,ugm-3
11-01-2012,19:00,0.700000,R,mgm-3,52.00000,R,ugm-3,78.00000,R,ugm-3,159.00000,R,ugm-3
11-01-2012,20:00,0.580000,R,mgm-3,41.00000,R,ugm-3,69.00000,R,ugm-3,132.00000,R,ugm-3
11-01-2012,21:00,0.470000,R,mgm-3,26.00000,R,ugm-3,61.00000,R,ugm-3,101.00000,R,ugm-3
11-01-2012,22:00,0.470000,R,mgm-3,20.00000,R,ugm-3,59.00000,R,ugm-3,90.00000,R,ugm-3
11-01-2012,23:00,0.350000,R,mgm-3,14.00000,R,ugm-3,46.00000,R,ugm-3,67.00000,R,ugm-3
11-01-2012,24:00,0.350000,R,mgm-3,14.00000,R,ugm-3,40.00000,R,ugm-3,61.00000,R,ugm-3
12-01-2012,01:00,0.350000,R,mgm-3,24.00000,R,ugm-3,23.00000,R,ugm-3,59.00000,R,ugm-3
12-01-2012,02:00,0.350000,R,mgm-3,9.00000,R,ugm-3,19.00000,R,ugm-3,33.00000,R,ugm-3
12-01-2012,03:00,0.350000,R,mgm-3,9.00000,R,ugm-3,15.00000,R,ugm-3,29.00000,R,ugm-3
12-01-2012,04:00,0.230000,R,mgm-3,4.00000,R,ugm-3,11.00000,R,ugm-3,17.00000,R,ugm-3
12-01-2012,05:00,0.230000,R,mgm-3,5.00000,R,ugm-3,11.00000,R,ugm-3,19.00000,R,ugm-3
12-01-2012,06:00,0.350000,R,mgm-3,11.00000,R,ugm-3,19.00000,R,ugm-3,36.00000,R,ugm-3
12-01-2012,07:00,0.350000,R,mgm-3,15.00000,R,ugm-3,23.00000,R,ugm-3,46.00000,R,ugm-3
12-01-2012,08:00,0.350000,R,mgm-3,25.00000,R,ugm-3,31.00000,R,ugm-3,69.00000,R,ugm-3
12-01-2012,09:00,0.470000,R,mgm-3,46.00000,R,ugm-3,40.00000,R,ugm-3,111.00000,R,ugm-3
12-01-2012,10:00,0.470000,R,mgm-3,49.00000,R,ugm-3,38.00000,R,ugm-3,113.00000,R,ugm-3
12-01-2012,11:00,0.350000,R,mgm-3,55.00000,R,ugm-3,38.00000,R,ugm-3,122.00000,R,ugm-3
12-01-2012,12:00,0.470000,R,mgm-3,69.00000,R,ugm-3,44.00000,R,ugm-3,149.00000,R,ugm-3
12-01-2012,13:00,0.470000,R,mgm-3,85.00000,R,ugm-3,46.00000,R,ugm-3,176.00000,R,ugm-3
12-01-2012,14:00,0.470000,R,mgm-3,66.00000,R,ugm-3,38.00000,R,ugm-3,140.00000,R,ugm-3
12-01-2012,15:00,,,,,,,,,,,,